[[{"header":{"parameterUnit":"m.s-1","parameterCategory":1,"la1":30.2991,"la2":30.254,"lo1":-89.0895,"lo2":-89.0444,"dy":0.0017,"dx":0.0017,"nx":28,"ny":28,"refTime":"2025-04-15T09:00:00:Z","depth":0,"parameterNumber":2,"parameterNumberName":"U-component_of_WINDS"},"data":[0,0,0,0,0,0,0,0,0,0,0,0,0,0,0,0,0,0,0,0,0,0,0,0,0,0,0,0,0,0,0,0,0,0,0,0,0,0,0,0,0,0,0,0,0,0,0,0,0,0,0,0,0,0,0,0,0,0,4.8245,4.8247,0,4.8435,4.8437,4.8439,4.8302,4.8296,4.829,4.8284,4.8489,4.85,4.8511,0,0,0,0,0,0,0,0,0,0,0,0,0,4.7775,4.7784,4.8245,4.8247,4.825,4.8434,4.8437,4.8439,4.8303,4.8296,4.8289,4.8282,4.8485,4.8499,4.8512,0,0,0,0,0,0,0,0,0,0,0,0,0,4.7973,4.7787,4.8245,4.8204,4.8202,4.8434,4.8437,4.844,4.8305,4.8296,4.8287,4.8278,4.8481,4.8497,4.8514,4.8799,0,0,4.8565,4.8572,0,0,0,0,0,0,0,0,4.7962,4.7991,4.8207,4.8207,4.8205,4.8335,4.8346,4.8561,4.8307,4.8266,4.8284,4.8274,4.8446,4.8465,4.8521,4.8809,4.8818,4.8566,4.8576,4.8583,4.8588,0,0,0,0,0,0,0,4.7949,4.7982,4.832,4.8211,4.821,4.8179,4.8197,4.8386,4.8405,4.8269,4.826,4.8283,4.8444,4.8505,4.8525,4.8821,4.8566,4.8581,4.8591,4.8597,4.9354,4.9364,0,0,0,0,0,0,4.7937,4.7971,4.8314,4.8326,4.8059,4.8195,4.8215,4.8303,4.8403,4.8409,4.8291,4.8276,4.8481,4.8505,4.8531,4.8873,4.8583,4.8599,4.8609,4.9344,4.9356,4.9367,0,0,0,0,0,0,4.7928,4.7969,4.8306,4.8146,4.8187,4.8213,4.8312,4.8312,4.8372,4.8419,4.8423,4.8349,4.8475,4.8508,4.8733,4.8878,4.8606,4.8622,4.9332,4.9348,4.9362,4.9559,0,0,0,0,0,0,4.7915,4.7967,4.8073,4.8149,4.8196,4.8503,4.8321,4.8322,4.84,4.8383,4.8475,4.8482,4.847,4.8709,4.875,4.8896,4.8635,4.9319,4.9339,4.9357,4.954,4.9579,4.9612,0,0,0,0,0,4.7899,4.8123,4.8079,4.8121,4.8329,4.8511,4.8538,4.8517,4.8413,4.8522,4.8551,4.8479,4.8855,4.8733,4.8778,4.8932,4.931,4.9334,4.9356,4.9523,4.9571,4.9612,0,0,0,0,0,0,4.8066,4.8132,4.8084,4.8339,4.8421,4.8488,4.8624,4.8569,4.8684,4.8663,4.8636,4.8658,4.8894,4.8935,4.8798,4.9214,4.9067,4.91,4.9179,4.9225,4.9261,4.9247,4.8649,0,0,0,0,0,4.8132,4.8272,4.8323,4.8544,4.8586,4.8599,4.8678,4.8654,4.8739,4.8773,4.882,4.8907,4.9045,4.9137,4.9266,4.9544,4.9564,4.9672,4.9709,4.9738,4.9768,4.992,4.9969,4.9442,4.9442,4.9441,0,0,4.8272,4.8325,4.8415,4.8579,4.8639,4.8787,4.8629,4.8792,4.8903,4.8799,4.9014,4.9052,4.9148,4.9401,4.9515,4.9442,4.9918,4.9767,4.9791,4.9804,4.9948,4.9998,5.0043,4.9457,4.9455,4.9452,0,0,4.8601,4.8654,4.8844,4.8907,4.8999,4.9005,4.9051,4.9128,4.9147,4.9362,4.9287,4.942,4.9658,4.973,4.9798,5.0155,5.0093,5.0198,5.0389,5.0538,5.0579,5.0616,5.0745,5.0792,5.0227,5.0227,5.0227,0,4.8764,4.8981,4.895,4.9119,4.9194,4.9103,4.9297,4.9361,4.9492,4.9548,4.9463,4.976,4.9819,5.0088,5.0175,5.0232,5.0286,5.0188,5.0575,5.0612,5.0646,5.0769,5.0817,5.0239,5.0238,5.0237,5.0236,0,4.9177,4.9329,4.9472,4.9597,4.9689,4.987,4.9869,4.9966,4.9935,4.9952,5.0173,5.0239,5.0381,5.0443,5.0415,5.071,5.0662,5.0577,5.0429,5.0709,5.0824,5.0871,5.0257,5.0253,5.0249,5.0246,0,0,4.9619,4.9724,4.9777,4.9833,4.9928,5.0046,5.0224,5.0359,5.0444,5.0538,5.0688,5.0892,5.0814,5.0891,5.0871,5.1001,5.1282,5.0901,5.0902,5.0971,5.1613,5.1677,5.1731,5.124,5.1249,5.1256,5.1605,0,4.9954,5.026,5.0238,5.0529,5.067,5.0586,5.0741,5.0818,5.0839,5.0965,5.0988,5.1133,5.1018,5.1065,5.1189,5.1221,5.1411,5.1195,5.1384,5.1391,5.1364,5.1791,5.186,5.2185,5.165,5.1657,5.1663,0,5.0387,5.0492,5.0796,5.087,5.0928,5.1068,5.1191,5.1311,5.1397,5.1403,5.1489,5.1447,5.1631,5.1476,5.173,5.1584,5.166,5.1687,5.1699,5.1718,5.1545,5.1823,5.2288,5.2338,5.1733,5.1727,5.1722,0,5.0681,5.0899,5.1109,5.116,5.125,5.1351,5.1394,5.1471,5.1554,5.1662,5.1717,5.1846,5.1918,5.2021,5.2017,5.1905,5.2276,5.212,5.2289,5.2289,5.2372,5.2367,5.2858,5.2418,5.2418,5.2417,5.2416,0,5.1059,5.1249,5.1242,5.1372,5.1583,5.1556,5.1767,5.1799,5.1869,5.2005,5.1942,5.2072,5.2057,5.219,5.2189,5.24,5.2433,5.2445,5.2443,5.2452,5.2451,5.2503,5.2481,5.243,5.2427,5.2424,5.2422,0,5.1423,5.1426,5.165,5.1717,5.1738,5.1891,5.195,5.2074,5.2088,5.2263,5.2302,5.2327,5.2479,5.2484,5.2661,5.266,5.2918,5.289,5.2888,5.2884,5.3052,5.3037,5.3595,5.3668,5.3179,5.3184,5.3188,0,5.1665,5.1809,5.189,5.1975,5.2024,5.2163,5.2246,5.2227,5.2317,5.2426,5.2539,5.2684,5.28,5.3049,5.3085,5.322,5.3195,5.3381,5.3216,5.322,5.32,5.3192,5.3208,5.3415,5.342,5.3424,5.3428,0,5.2095,5.2089,5.221,5.2333,5.2434,5.2531,5.262,5.2694,5.2685,5.2791,5.2944,5.3034,5.3212,5.336,5.3491,5.3538,5.3485,5.3479,5.3526,5.3538,5.3531,5.3539,5.2979,5.3467,5.3463,5.3461,5.3458,5.3457,5.2407,5.253,5.2607,5.2745,5.2809,5.2894,5.3014,5.3043,5.3169,5.3311,5.3292,5.3464,5.3549,5.3718,5.3777,5.3914,5.385,5.3917,5.3934,5.3951,5.397,5.3508,5.3937,5.3936,5.3935,5.3934,5.3933,0,5.2834,5.2878,5.3005,5.3131,5.324,5.3175,5.3271,5.3367,5.3518,5.36,5.3714,5.3892,5.4034,5.408,5.4219,5.4319,5.4298,5.4357,5.435,5.4362,5.4018,5.3965,5.4372,5.4372,5.4371,5.4371,5.4371,5.4371,5.3069,5.3276,5.3279,5.3518,5.3562,5.3727,5.3788,5.3867,5.3932,5.4132,5.4248,5.4276,5.4345,5.4488,5.4617,5.4627,5.4682,5.4752,5.4752,5.443,5.4386,5.4345,5.4294,5.4763,5.4764,5.5085,5.5088,5.509]},{"header":{"parameterUnit":"m.s-1","parameterCategory":1,"la1":30.2991,"la2":30.254,"lo1":-89.0895,"lo2":-89.0444,"dy":0.0017,"dx":0.0017,"nx":28,"ny":28,"refTime":"2025-04-15T09:00:00:Z","depth":0,"parameterNumber":3,"parameterNumberName":"V-component_of_WINDS"},"data":[0,0,0,0,0,0,0,0,0,0,0,0,0,0,0,0,0,0,0,0,0,0,0,0,0,0,0,0,0,0,0,0,0,0,0,0,0,0,0,0,0,0,0,0,0,0,0,0,0,0,0,0,0,0,0,0,0,0,-0.0495,-0.0495,0,-0.0506,-0.0506,-0.0506,-0.0538,-0.0538,-0.0539,-0.054,-0.055,-0.055,-0.0549,0,0,0,0,0,0,0,0,0,0,0,0,0,-0.0499,-0.0498,-0.0495,-0.0495,-0.0495,-0.0506,-0.0506,-0.0507,-0.0538,-0.0538,-0.0539,-0.054,-0.055,-0.055,-0.0549,0,0,0,0,0,0,0,0,0,0,0,0,0,-0.0502,-0.0498,-0.0495,-0.0512,-0.0514,-0.0506,-0.0506,-0.0507,-0.0537,-0.0538,-0.0539,-0.054,-0.055,-0.055,-0.0549,-0.0526,0,0,-0.0548,-0.0547,0,0,0,0,0,0,0,0,-0.0502,-0.0502,-0.0509,-0.0511,-0.0513,-0.0522,-0.0512,-0.0513,-0.0537,-0.0528,-0.054,-0.0541,-0.054,-0.054,-0.054,-0.0526,-0.0526,-0.0547,-0.0547,-0.0547,-0.0547,0,0,0,0,0,0,0,-0.0502,-0.0502,-0.0499,-0.0509,-0.0511,-0.0519,-0.052,-0.0512,-0.0528,-0.0529,-0.0531,-0.0532,-0.0541,-0.054,-0.054,-0.0527,-0.0548,-0.0547,-0.0547,-0.0546,-0.0495,-0.0494,0,0,0,0,0,0,-0.0499,-0.0501,-0.0499,-0.05,-0.051,-0.0518,-0.052,-0.0518,-0.0528,-0.0531,-0.0532,-0.0534,-0.0541,-0.0541,-0.0541,-0.0514,-0.0547,-0.0546,-0.0546,-0.0496,-0.0495,-0.0494,0,0,0,0,0,0,-0.0499,-0.0499,-0.0498,-0.0501,-0.0502,-0.0517,-0.0514,-0.0517,-0.0517,-0.053,-0.0533,-0.0528,-0.0542,-0.0542,-0.0529,-0.0515,-0.0546,-0.0546,-0.0497,-0.0496,-0.0494,-0.0461,0,0,0,0,0,0,-0.0499,-0.0498,-0.049,-0.0501,-0.0501,-0.0487,-0.0513,-0.0517,-0.0516,-0.0519,-0.0528,-0.053,-0.0542,-0.053,-0.0529,-0.0515,-0.0545,-0.0498,-0.0496,-0.0495,-0.0464,-0.0459,-0.0454,0,0,0,0,0,-0.0499,-0.0479,-0.0489,-0.0489,-0.0491,-0.0486,-0.0486,-0.0501,-0.0515,-0.0506,-0.0515,-0.053,-0.0517,-0.0529,-0.0528,-0.0513,-0.0499,-0.0497,-0.0495,-0.0466,-0.046,-0.0454,0,0,0,0,0,0,-0.0466,-0.0481,-0.0492,-0.0475,-0.0479,-0.0491,-0.0481,-0.0494,-0.0494,-0.0497,-0.0515,-0.0516,-0.0502,-0.0506,-0.0519,-0.0491,-0.0511,-0.0508,-0.0489,-0.0483,-0.0479,-0.0478,-0.0545,0,0,0,0,0,-0.0456,-0.0452,-0.0465,-0.0449,-0.0451,-0.0465,-0.0464,-0.0475,-0.0479,-0.0481,-0.0489,-0.0492,-0.0489,-0.0486,-0.0484,-0.0464,-0.0467,-0.0454,-0.045,-0.0446,-0.0443,-0.0434,-0.0428,-0.0486,-0.0486,-0.0486,0,0,-0.0437,-0.0445,-0.0441,-0.0443,-0.0447,-0.0442,-0.0466,-0.0459,-0.0455,-0.048,-0.0469,-0.0475,-0.048,-0.0464,-0.0457,-0.0467,-0.0428,-0.0443,-0.044,-0.0439,-0.0431,-0.0425,-0.042,-0.0484,-0.0484,-0.0485,0,0,-0.0399,-0.0405,-0.0392,-0.0396,-0.0403,-0.0413,-0.041,-0.042,-0.0425,-0.0415,-0.0433,-0.0429,-0.0423,-0.0426,-0.0426,-0.0391,-0.0405,-0.0389,-0.0365,-0.0356,-0.0352,-0.0348,-0.0335,-0.0331,-0.0387,-0.0387,-0.0387,0,-0.0374,-0.0367,-0.0384,-0.0376,-0.0377,-0.0399,-0.0387,-0.039,-0.0395,-0.0395,-0.0406,-0.04,-0.0404,-0.039,-0.0381,-0.0381,-0.0378,-0.0388,-0.0351,-0.0347,-0.0344,-0.0332,-0.0327,-0.0385,-0.0385,-0.0385,-0.0385,0,-0.0337,-0.0331,-0.032,-0.0326,-0.0325,-0.0315,-0.033,-0.0327,-0.0338,-0.0347,-0.0337,-0.0344,-0.0343,-0.0341,-0.0351,-0.0328,-0.0334,-0.0348,-0.0368,-0.0336,-0.0326,-0.0321,-0.0382,-0.0383,-0.0383,-0.0384,0,0,-0.0278,-0.0293,-0.0289,-0.0292,-0.0301,-0.0297,-0.0288,-0.0288,-0.0286,-0.0289,-0.0282,-0.0276,-0.029,-0.029,-0.0302,-0.0293,-0.0265,-0.0308,-0.0309,-0.03,-0.024,-0.023,-0.0225,-0.0275,-0.0274,-0.0273,-0.024,0,-0.0242,-0.0228,-0.0243,-0.0226,-0.0222,-0.0243,-0.0236,-0.024,-0.0248,-0.0245,-0.0254,-0.025,-0.0268,-0.0269,-0.0261,-0.027,-0.0253,-0.0273,-0.0268,-0.0268,-0.0267,-0.0219,-0.0208,-0.0176,-0.0236,-0.0235,-0.0235,0,-0.0199,-0.0201,-0.0183,-0.0194,-0.0193,-0.0186,-0.0188,-0.0185,-0.0191,-0.0197,-0.0198,-0.0212,-0.0204,-0.0224,-0.0213,-0.0226,-0.0225,-0.0229,-0.0228,-0.0228,-0.0249,-0.0218,-0.0167,-0.0162,-0.0228,-0.0229,-0.0229,0,-0.0158,-0.0156,-0.0146,-0.0147,-0.016,-0.0154,-0.0159,-0.0166,-0.0166,-0.0167,-0.0167,-0.0168,-0.0168,-0.0168,-0.0182,-0.0195,-0.0169,-0.019,-0.0175,-0.0174,-0.0168,-0.0168,-0.0116,-0.0167,-0.0167,-0.0167,-0.0167,0,-0.0118,-0.0106,-0.0128,-0.0121,-0.0109,-0.0127,-0.0114,-0.0121,-0.0127,-0.0122,-0.0141,-0.0136,-0.0154,-0.0151,-0.0162,-0.0152,-0.0151,-0.0156,-0.0159,-0.0155,-0.0154,-0.0155,-0.0157,-0.0166,-0.0166,-0.0167,-0.0167,0,-0.007,-0.0084,-0.0074,-0.0087,-0.009,-0.0081,-0.0092,-0.0086,-0.0096,-0.0089,-0.0089,-0.0103,-0.0101,-0.0115,-0.0114,-0.0122,-0.0106,-0.0113,-0.0104,-0.0107,-0.0091,-0.0092,-0.0037,-0.0031,-0.0085,-0.0085,-0.0084,0,-0.0043,-0.0035,-0.0047,-0.0046,-0.005,-0.0047,-0.0047,-0.0064,-0.0063,-0.007,-0.0063,-0.0062,-0.0063,-0.0057,-0.0068,-0.0068,-0.0075,-0.0056,-0.0075,-0.0071,-0.0075,-0.0076,-0.0075,-0.0052,-0.0051,-0.005,-0.005,0,0.0006,-0.0002,-0.0002,-0.0003,-0.0003,-0.0005,-0.0009,-0.0006,-0.0025,-0.0023,-0.0021,-0.0021,-0.0021,-0.002,-0.0023,-0.0027,-0.0042,-0.0044,-0.004,-0.0036,-0.0032,-0.0034,-0.0094,-0.0045,-0.0045,-0.0046,-0.0046,-0.0046,0.0043,0.0049,0.0041,0.0042,0.0038,0.0035,0.0039,0.003,0.0031,0.0029,0.0019,0.0023,0.0016,0.0011,0.0008,0.0011,0.0001,0.0007,0.0008,0.0009,0.0012,-0.0032,0.001,0.001,0.001,0.001,0.001,0,0.009,0.0084,0.0085,0.008,0.0081,0.0067,0.0063,0.0064,0.0068,0.0063,0.0062,0.0064,0.0065,0.0054,0.0054,0.0058,0.0051,0.0058,0.0058,0.0057,0.002,0.0017,0.0064,0.0064,0.0064,0.0064,0.0064,0.0064,0.0115,0.0124,0.0116,0.0122,0.0116,0.0119,0.0118,0.0115,0.011,0.0113,0.0114,0.0106,0.0099,0.0097,0.0097,0.0094,0.0095,0.0104,0.0098,0.0065,0.0059,0.0054,0.0051,0.0104,0.0104,0.0134,0.0135,0.0135]}]]